Regional Weather Roundup
Issued by NWS

Home | Current Version | Previous Version | Graphics & Text | Print | Product List | Glossary Off
Versions: 1 2 3 4 5 6 7 8 9 10 11 12 13 14 15 16 17 18 19 20 21 22 23 24 25 26 27 28 29 30 31 32 33 34 35 36 37 38 39 40 41 42 43 44 45 46 47 48 49

000
ASUS43 KDMX 231707
RWRIA

WEATHER ROUNDUP FOR IOWA
NATIONAL WEATHER SERVICE DES MOINES IA
1100 AM CST SUN NOV 23 2014

NOTE: "FAIR" INDICATES FEW OR NO CLOUDS BELOW 12,000 FEET WITH NO
SIGNIFICANT WEATHER AND/OR OBSTRUCTIONS TO VISIBILITY.

* - THESE STATIONS ARE NOT NWS STATIONS...THUS NOT UNDER NWS
QUALITY CONTROL.  THEY ALSO DO NOT REPORT WEATHER SUCH
AS PRECIPITATION OR FOG.

IAZ001>003-012>014-020>022-031>034-043>046-231800-
   NORTHWEST IOWA

CITY           SKY/WX    TMP DP  RH WIND       PRES   REMARKS
CARROLL *      CLOUDY    55  52  88 SW14      29.44F
CHEROKEE *     CLOUDY    46  41  81 NW14G24   29.48S
DENISON *      CLOUDY    50  50 100 NW18G24   29.44S
LE MARS *      CLOUDY    45  39  81 NW18G26   29.54S
ORANGE CITY *  DRIZZLE   45  37  76 NW18G28   29.52S
SHELDON *      MIX PCPN  43  41  93 NW16      29.50R
SIOUX CITY     CLOUDY    45  38  76 NW22G31   29.54R
SPENCER        CLOUDY    46  41  82 NW21      29.45F
STORM LAKE *   MOSUNNY   46  43  87 NW16      29.47R
$$

IAZ055>058-069>071-079>083-090>094-231800-
   SOUTHWEST IOWA

CITY           SKY/WX    TMP DP  RH WIND       PRES   REMARKS
ATLANTIC *     CLOUDY    54  54 100 SW8       29.44F
AUDUBON *      SUNNY     54  48  82 S7        29.45F
CLARINDA *     CLOUDY    54  54 100 S6        29.47F FOG
COUNCIL BLFS * CLOUDY    48  48 100 NW15G23   29.45S
CRESTON *      CLOUDY    52  52 100 S9        29.46F FOG
HARLAN  *      CLOUDY    54  54 100 SW9       29.48F
LAMONI         CLOUDY    51  51 100 S5        29.47F FOG
RED OAK *      CLOUDY    54  54 100 S7        29.45F FOG
SHENANDOAH *   CLOUDY    55  55 100 S10       29.45F
$$

IAZ047>049-059>061-072>074-084-231800-
   CENTRAL IOWA

CITY           SKY/WX    TMP DP  RH WIND       PRES   REMARKS
AMES           CLOUDY    51  49  92 SE6       29.47F FOG
ANKENY *       CLOUDY    52  52 100 S5        29.46F FOG
CHARITON *     CLOUDY    52  52 100 S8        29.47F FOG
DES MOINES     DRIZZLE   53  50  89 S6        29.46F FOG
GRINNELL*      RAIN      50  48  93 SE7       29.49F
KNOXVILLE *    LGT RAIN  52  50  93 S8        29.46F
MARSHALLTOWN   RAIN      50  49  96 S9        29.48F FOG
PELLA *        RAIN      52  50  93 S7        29.49F
PERRY *        CLOUDY    52  52 100 S7        29.46F FOG
$$

IAZ004>006-015-016-023>025-035-036-231800-
   NORTH CENTRAL IOWA

CITY           SKY/WX    TMP DP  RH WIND       PRES   REMARKS
ALGONA *       CLOUDY    52  52 100 S9        29.44F
CLARION *      CLOUDY    52  52 100 S12       29.45F FOG
ESTHERVILLE    CLOUDY    48  46  93 NW10      29.43F
FORT DODGE *   CLOUDY    52  48  87 S10       29.46F
MASON CITY     CLOUDY    51  50  96 S10       29.47F
FOREST CITY *  RAIN      50  50 100 S8        29.45F
IOWA FALLS *   CLOUDY    50  50 100 S13       29.47F FOG
$$

IAZ007>011-017>019-026>030-037>042-050>054-066-231800-
   NORTHEAST IOWA

CITY           SKY/WX    TMP DP  RH WIND       PRES   REMARKS
CEDAR RAPIDS   RAIN      50  50 100 SE10      29.51F FOG
CHARLES CITY * FOG       50  50 100 S16       29.48F VSB 1/4
CLINTON *      CLOUDY    48  46  93 SE9       29.60F
DECORAH *      CLOUDY    50  50 100 S9G16     29.50F FOG
DUBUQUE        RAIN      48  48 100 S12       29.55F FOG
MONTICELLO *   LGT RAIN  50  50 100 SE8       29.54F
OELWEIN *      CLOUDY    50  50 100 S15       29.50F FOG
WATERLOO       CLOUDY    50  50 100 S13       29.49F
$$

IAZ064-065-067-068-078-231800-
   EAST CENTRAL IOWA

CITY           SKY/WX    TMP DP  RH WIND       PRES   REMARKS
DAVENPORT      LGT RAIN  49  47  93 S12       29.56F FOG
IOWA CITY      LGT RAIN  50  50 100 SE8       29.53F FOG
MT. PLEASANT * RAIN      50  50 100 SE14      29.52F
MUSCATINE *    LGT RAIN  52  50  93 SE7       29.54F
QUAD CITIES    LGT RAIN  51  48  89 S14       29.55F FOG
$$

IAZ062-063-075>077-085>089-095>099-231800-
   SOUTHEAST IOWA

CITY           SKY/WX    TMP DP  RH WIND       PRES   REMARKS
BURLINGTON     LGT RAIN  51  50  96 S10       29.54F FOG
FAIRFIELD *    HVY RAIN  52  50  93 SE9       29.51F
FORT MADISON * RAIN      52  52 100 S9        29.54F
KEOKUK *       LGT RAIN  52  52 100 SE7G14    29.52F
OSKALOOSA *    RAIN      50  50 100 SE9       29.49F
CENTERVILLE *  LGT RAIN  52  52 100 SE6       29.49F
OTTUMWA        RAIN      51  50  96 S10       29.48F FOG
WASHINGTON *   RAIN      52  52 100 S10       29.51F
$$

ABBREVIATIONS USED IN REMARKS
   TC - TEMPERATURES IN CELSIUS
  WCI - WIND CHILL INDEX
   HX - HEAT INDEX
  VSB - VISIBILITY
$$




USA.gov is the U.S. government's official web portal to all federal, state and local government web resources and services.